Location: Tel Aviv
(32.0670°N, 34.7670°E)
Time: 12:29:25
(UTC+03:00)

Explorer 11/Cluster Stage 4 - Pass Details

Date: 21 September 2024
Orbit: 464 x 1208 km, 28.8° (Epoch: 05 October)

Event Time Altitude Azimuth Distance (km) Brightness Sun altitude
Rises 08:21:01 0° 272° (W) 3,420 9.3 22.7°
Reaches altitude 10° 08:23:27 10° 267° (W) 2,592 8.8 23.2°
Maximum altitude 08:29:38 52° 193° (SSW) 1,271 8.0 24.5°
Drops below altitude 10° 08:36:55 10° 119° (ESE) 3,041 11.3 26.0°
Sets 08:39:59 0° 115° (ESE) 4,057 11.5 26.6°
